This is the latest recevied weather packets stored in our database for station/object W4GAP. If no packets are shown the sender has not sent any weather packets the latest 10 day(s).
| Time | Temp. | Humidity | Pressure | Rain* | Wind** | Luminosity | Snow |
|---|---|---|---|---|---|---|---|
| 1777740465 | 20° C | 56% | 1009.4 hPa | 0 mm | - | 516 W/m² | - |
| 1777740163 | 20° C | 52% | 1009.3 hPa | 0 mm | - | 70 W/m² | - |
| 1777739858 | 20° C | 55% | 1009.7 hPa | 0 mm | - | 772 W/m² | - |
| 1777739555 | 19.44° C | 57% | 1009.8 hPa | 0 mm | - | 758 W/m² | - |
| 1777739252 | 19.44° C | 57% | 1009.9 hPa | 0 mm | - | 762 W/m² | - |
| 1777738949 | 18.89° C | 59% | 1009.9 hPa | 0 mm | - | 787 W/m² | - |
| 1777738646 | 18.89° C | 60% | 1009.8 hPa | 0 mm | - | 240 W/m² | - |
| 1777738342 | 18.33° C | 61% | 1009.9 hPa | 0 mm | - | 362 W/m² | - |
| 1777738041 | 17.78° C | 62% | 1010.1 hPa | 0 mm | - | 672 W/m² | - |
| 1777737739 | 17.78° C | 61% | 1010 hPa | 0 mm | - | 740 W/m² | - |
| 1777737437 | 17.78° C | 63% | 1010 hPa | 0 mm | - | 254 W/m² | - |
| 1777737134 | 17.22° C | 62% | 1010 hPa | 0 mm | - | 210 W/m² | - |
| 1777736829 | 16.67° C | 66% | 1009.8 hPa | 0 mm | - | 332 W/m² | - |
| 1777736212 | 16.11° C | 66% | 1010.1 hPa | 0 mm | - | 92 W/m² | - |
| 1777735908 | 15.56° C | 68% | 1009.9 hPa | 0 mm | - | 71 W/m² | - |
| 1777735606 | 15.56° C | 69% | 1010.1 hPa | 0 mm | - | 94 W/m² | - |
| 1777735303 | 15° C | 69% | 1010.1 hPa | 0 mm | - | 95 W/m² | - |
| 1777735001 | 15° C | 69% | 1010.1 hPa | 0 mm | - | 91 W/m² | - |
| 1777734698 | 15° C | 71% | 1010.1 hPa | 0 mm | - | 91 W/m² | - |
| 1777734395 | 15° C | 72% | 1010.3 hPa | 0 mm | - | 68 W/m² | - |
| 1777734091 | 14.44° C | 71% | 1010.2 hPa | 0 mm | - | 58 W/m² | - |
| 1777733788 | 14.44° C | 72% | 1010.2 hPa | 0 mm | - | 47 W/m² | - |
| 1777733485 | 14.44° C | 70% | 1010.2 hPa | 0 mm | - | 37 W/m² | - |
| 1777733180 | 14.44° C | 71% | 1010.1 hPa | 0 mm | - | 39 W/m² | - |
| 1777732878 | 14.44° C | 72% | 1010 hPa | 0 mm | - | 42 W/m² | - |
* Rain latest hour (hover to see other rain measurements)
** Current wind speed in m/s (hover to see current wind gust speed)